WetterOnline ( https://www.wetteronline.de )

Wetter aktuell Grünenbach

Aktuelles Wetter: Leutkirch-Herlazhofen (671m)

6-stündlich | Neueste Meldungen
Ortszeit Temperatur Wetter
Sa, 31.10. 13:00 14.3° C leicht bewölkt
Sa, 31.10. 7:00 0.2° C Nebel
Sa, 31.10. 1:00 3.5° C Nebel
Fr, 30.10. 19:00 9.8° C wolkig
Fr, 30.10. 13:00 12.2° C bedeckt
Fr, 30.10. 7:00 9.5° C bedeckt
Fr, 30.10. 1:00 8.9° C Sprühregen
Do, 29.10. 19:00 8.6° C leichter Regen
Ortszeit Temperatur Wetter
Sa, 31.10. 15:30 14.7° C fast wolkenlos
Sa, 31.10. 15:20 14.7° C fast wolkenlos
Sa, 31.10. 15:10 14.9° C fast wolkenlos
Sa, 31.10. 15:00 14.7° C wolkenlos
Sa, 31.10. 14:50 14.7° C wolkenlos
Sa, 31.10. 14:40 14.7° C fast wolkenlos
Sa, 31.10. 14:30 14.0° C wolkig
Sa, 31.10. 14:00 14.5° C leicht bewölkt
Sa, 31.10. 13:30 14.5° C fast wolkenlos
Sa, 31.10. 13:00 14.3° C leicht bewölkt
Sa, 31.10. 12:30 13.8° C wolkenlos
Ortszeit Relative Feuchte Sichtweite
Sa, 31.10. 13:00 59% 55 km
Sa, 31.10. 7:00 99% 0.2 km
Sa, 31.10. 1:00 100% 0.8 km
Fr, 30.10. 19:00 87% 55 km
Fr, 30.10. 13:00 72% 65 km
Fr, 30.10. 7:00 84% >70 km
Fr, 30.10. 1:00 92% 17 km
Do, 29.10. 19:00 92% 15 km
Ortszeit Relative Feuchte Sichtweite
Sa, 31.10. 15:30 61% 50 km
Sa, 31.10. 15:20 61% -
Sa, 31.10. 15:10 60% -
Sa, 31.10. 15:00 59% 50 km
Sa, 31.10. 14:50 59% -
Sa, 31.10. 14:40 61% -
Sa, 31.10. 14:30 59% >70 km
Sa, 31.10. 14:00 62% >70 km
Sa, 31.10. 13:30 63% 55 km
Sa, 31.10. 13:00 59% 55 km
Sa, 31.10. 12:30 68% 45 km
Ortszeit Niederschlagsmenge Niederschlagsart
Sa, 31.10. 13:00 0.0 l/m2 in 6 Std. -
Sa, 31.10. 7:00 0.0 l/m2 in 12 Std. -
Sa, 31.10. 1:00 0.0 l/m2 in 6 Std. -
Fr, 30.10. 19:00 0.0 l/m2 in 12 Std. -
Fr, 30.10. 13:00 0.0 l/m2 in 6 Std. -
Fr, 30.10. 7:00 6 l/m2 in 12 Std. Regen
Fr, 30.10. 1:00 5 l/m2 in 6 Std. Regen
Do, 29.10. 19:00 5 l/m2 in 12 Std. Regen
Ortszeit Niederschlagsmenge Niederschlagsart
Sa, 31.10. 15:30 0.0 l/m2 in 1 Std. -
Sa, 31.10. 15:20 keine Meldung -
Sa, 31.10. 15:10 keine Meldung -
Sa, 31.10. 15:00 0.0 l/m2 in 1 Std. -
Sa, 31.10. 14:50 keine Meldung -
Sa, 31.10. 14:40 keine Meldung -
Sa, 31.10. 14:30 0.0 l/m2 in 1 Std. -
Sa, 31.10. 14:00 0.0 l/m2 in 1 Std. -
Sa, 31.10. 13:30 0.0 l/m2 in 1 Std. -
Sa, 31.10. 13:00 0.0 l/m2 in 1 Std. -
Sa, 31.10. 12:30 0.0 l/m2 in 1 Std. -
Ortszeit Stärke Spitze Richtung
km/h Bft. km/h Grad Sektor
Sa, 31.10. 13:00 13 3 19 250° W
Sa, 31.10. 7:00 0 0 7 - -
Sa, 31.10. 1:00 0 0 14 - -
Fr, 30.10. 19:00 9 2 11 210° SW
Fr, 30.10. 13:00 - - 37 - -
Fr, 30.10. 7:00 14 3 36 230° SW
Fr, 30.10. 1:00 19 3 31 210° SW
Do, 29.10. 19:00 17 3 39 230° SW
Ortszeit Stärke Spitze Richtung
km/h Bft. km/h Grad Sektor
Sa, 31.10. 15:30 7 2 11 210° SW
Sa, 31.10. 15:20 7 2 - 210° SW
Sa, 31.10. 15:10 6 1 - 220° SW
Sa, 31.10. 15:00 7 2 18 240° SW
Sa, 31.10. 14:50 7 2 - 240° SW
Sa, 31.10. 14:40 9 2 - 230° SW
Sa, 31.10. 14:30 11 2 17 250° W
Sa, 31.10. 14:00 13 3 19 250° W
Sa, 31.10. 13:30 13 3 17 260° W
Sa, 31.10. 13:00 13 3 19 250° W
Sa, 31.10. 12:30 7 2 11 310° NW
Ortszeit Untergrenze Bedeckung Gattung
total tief tief mittel hoch
Sa, 31.10. 13:00 8700 m 6/8 0/8 - - -
Sa, 31.10. 7:00 <30 m 7/8 0/8 - - -
Sa, 31.10. 1:00 - 0/8 0/8 - - -
Fr, 30.10. 19:00 630 m 5/8 5/8 - - -
Fr, 30.10. 13:00 720 m 8/8 8/8 - - -
Fr, 30.10. 7:00 600 m 8/8 8/8 - - -
Fr, 30.10. 1:00 1500 m 8/8 8/8 - - -
Do, 29.10. 19:00 1170 m 7/8 7/8 - - -
Ortszeit Bedeckungsgrad in Achtel und Wolkenuntergrenze
Sa, 31.10. 15:30 1(8100m)
Sa, 31.10. 15:20 1(8100m)
Sa, 31.10. 15:10 1(8100m)
Sa, 31.10. 15:00 keine Wolken
Sa, 31.10. 14:50 keine Wolken
Sa, 31.10. 14:40 2(8100m)
Sa, 31.10. 14:30 7(8100m)
Sa, 31.10. 14:00 4(8100m)
Sa, 31.10. 13:30 1(8700m)
Sa, 31.10. 13:00 6(8700m)
Sa, 31.10. 12:30 keine Wolken
Ortszeit Luftdruck NN (hPa) Tendenz (hPa in 3 Std.)
Sa, 31.10. 13:00 1023 - 1,6
Sa, 31.10. 7:00 1029 - 1,2
Sa, 31.10. 1:00 1029 - 0,4
Fr, 30.10. 19:00 1027 + 0,8
Fr, 30.10. 13:00 1025 - 0,2
Fr, 30.10. 7:00 1025 + 0,4
Fr, 30.10. 1:00 1025 + 0,2
Do, 29.10. 19:00 1025 + 1,7
Ortszeit Luftdruck NN (hPa) Tendenz (hPa in 3 Std.)
Sa, 31.10. 15:30 1021 - 1,5
Sa, 31.10. 15:20 1021 keine Meldung
Sa, 31.10. 15:10 1021 keine Meldung
Sa, 31.10. 15:00 1021 - 1,5
Sa, 31.10. 14:50 1021 keine Meldung
Sa, 31.10. 14:40 1021 keine Meldung
Sa, 31.10. 14:30 1022 - 1,7
Sa, 31.10. 14:00 1022 - 1,5
Sa, 31.10. 13:30 1022 - 1,4
Sa, 31.10. 13:00 1023 - 1,6
Sa, 31.10. 12:30 1023 - 1,5
Ortszeit Schneehöhe (cm)
Sa, 31.10. 13:00 0
Sa, 31.10. 7:00 0
Sa, 31.10. 1:00 0
Fr, 30.10. 19:00 0
Fr, 30.10. 13:00 0
Fr, 30.10. 7:00 0
Fr, 30.10. 1:00 0
Do, 29.10. 19:00 0
Ortszeit Schneehöhe (cm)
Sa, 31.10. 15:30 0
Sa, 31.10. 15:20 0
Sa, 31.10. 15:10 0
Sa, 31.10. 15:00 0
Sa, 31.10. 14:50 0
Sa, 31.10. 14:40 0
Sa, 31.10. 14:30 0
Sa, 31.10. 14:00 0
Sa, 31.10. 13:30 0
Sa, 31.10. 13:00 0
Sa, 31.10. 12:30 0
Link zu dieser Seite / Seite empfehlen

Das Wetter in ...